www.pogodaiklimat.ru

Погода и климат >> Архив погоды >> Новая Зеландия >> Гисборн


ПОГОДА в Гисборне

  • Прогноз погоды в Гисборне
  • Монитор погоды в Гисборне

АРХИВ ПОГОДЫ в Гисборне

Время (UTC), дата Ветер
(напр.,м/с)
 
Видим.   Явления Облачность Т
(С)
Тd
(С)
f
(%)
Тe
(С)
Тes
(С)
Комфортность P
(гПа)
Po
(гПа)
Тmin
(С)
Tmax
(С)
R
(мм)
R24
(мм)
S
(см)
12 15.05 СЗ 6 20 км н/о +14.4 +6.2 58 +13 +13 1007.8 1007.3 +19.7
15 15.05 СЗ 5 20 км н/о +13.9 +7.2 64 +12 +12 1006.4 1005.9
18 15.05 СЗ 4 20 км н/о +12.9 +7.4 69 +11 +11 1007.2 1006.7
21 15.05 СЗ 6 20 км н/о +17.1 +9.0 59 +16 +16 1006.5 1006.0
00 16.05 З 6 20 км н/о +19.8 +6.6 42 +20 +20 1005.9 1005.4 +11.7
03 16.05 З 8 20 км н/о +20.5 +6.2 39 +21 +21 комфорт 1003.7 1003.2
06 16.05 СЗ 7 20 км н/о +16.4 +6.3 51 +15 +15 1004.4 1003.9
09 16.05 СЗ 5 20 км н/о +14.6 +6.0 56 +13 +13 1007.0 1006.5
12 16.05 Ю 7 4000 м н/о +10.6 +8.9 89 +7 +7 1011.4 1010.9 +21.5 0.4
15 16.05 ЮЗ 3 20 км н/о +9.4 +6.7 83 +7 +7 1013.6 1013.1
18 16.05 СЗ 3 20 км н/о +8.0 +4.8 80 +6 +6 1015.5 1015.0
21 16.05 З 5 20 км н/о +10.0 +5.3 73 +7 +7 1018.2 1017.7
00 17.05 ЮЗ 7 10 км н/о +12.7 +5.0 59 +10 +10 1019.0 1018.5 +7.8 0.6
03 17.05 ЮЗ 6 20 км н/о +13.2 +5.3 59 +11 +11 1019.8 1019.3
06 17.05 З 1 20 км н/о +6.2 +2.8 79 +5 +5 1021.0 1020.5
09 17.05 СЗ 3 20 км н/о +4.5 +2.5 87 +1 +1 1022.5 1022.0
12 17.05 СЗ 3 20 км н/о +4.6 +2.0 83 +1 +1 1023.1 1022.6 +14.0
15 17.05 СЗ 3 20 км н/о +3.6 +1.6 87 -0 -0 1022.6 1022.1
18 17.05 СЗ 4 20 км н/о +3.0 +1.1 87 -2 -2 1021.6 1021.1
21 17.05 СЗ 3 20 км н/о +7.3 +3.6 77 +4 +4 1021.7 1021.2
00 18.05 СЗ 4 20 км н/о +15.9 +7.1 56 +15 +15 1019.0 1018.5 +1.7
03 18.05 СЗ 5 20 км н/о +16.5 +7.6 56 +16 +16 1016.4 1015.9
06 18.05 СЗ 5 20 км н/о +12.3 +7.3 72 +10 +10 1015.8 1015.3
09 18.05 СЗ 4 20 км н/о +12.2 +7.6 73 +10 +10 1015.2 1014.7
12 18.05 СЗ 4 20 км н/о +11.8 +7.1 73 +10 +10 1013.6 1013.1 +17.3
15 18.05 СЗ 6 20 км н/о +13.3 +8.1 71 +11 +11 1011.2 1010.7
18 18.05 СЗ 7 20 км н/о +14.1 +8.5 69 +12 +12 1008.9 1008.4
21 18.05 С 2 20 км н/о +16.5 +8.0 57 +17 +17 1010.4 1009.9
00 19.05 З 8 20 км н/о +19.6 +8.5 49 +20 +20 1010.3 1009.8 +11.7
03 19.05 ЮЗ 3 20 км н/о +19.0 +8.0 49 +20 +20 1011.0 1010.5
06 19.05 Ю 4 10 км н/о +15.4 +11.6 78 +15 +15 1013.7 1013.2
09 19.05 ЮЗ 2 10 км н/о +12.9 +10.2 84 +12 +12 1016.1 1015.6
12 19.05 С 1 4000 м н/о +9.7 +8.7 93 +9 +9 1016.6 1016.1 +20.7
15 19.05 С 2 10 км н/о +8.8 +8.6 99 +7 +7 1015.1 1014.6
18 19.05 СЗ 2 20 км н/о +7.0 +6.5 97 +5 +5 1015.6 1015.1
21 19.05 С 2 20 км н/о +10.2 +7.6 84 +9 +9 1017.0 1016.5
00 20.05 С 3 10 км н/о +17.3 +7.0 51 +17 +17 1017.6 1017.1 +3.8
03 20.05 Ю 4 20 км н/о +17.4 +8.5 56 +17 +17 1018.0 1017.5
06 20.05 Ю 1 4000 м н/о +12.9 +8.1 73 +14 +14 1019.8 1019.3
09 20.05 СЗ 2 10 км н/о +6.2 +5.1 93 +4 +4 1021.2 1020.7
12 20.05 СЗ 1 10 км н/о +4.5 +4.0 97 +3 +3 1022.3 1021.8 +19.4
15 20.05 СЗ 1 10 км н/о +3.8 +3.5 98 +2 +2 1022.8 1022.3
18 20.05 СЗ 1 10 км н/о +3.3 +2.8 97 +2 +2 1022.8 1022.3
21 20.05 СЗ 2 10 км н/о +7.3 +6.2 93 +5 +5 1024.1 1023.6
00 21.05 СЗ 2 20 км н/о +17.3 +9.6 61 +18 +18 1022.7 1022.2 +3.2
03 21.05 СЗ 4 20 км н/о +19.0 +9.0 52 +20 +20 1021.6 1021.1
06 21.05 штиль 0 4000 м н/о +11.6 +10.4 92 +11 +11 1022.5 1022.0
09 21.05 СЗ 2 200 м н/о +5.2 +4.5 95 +3 +3 1023.8 1023.3
12 21.05 СЗ 2 20 км н/о +5.9 +5.0 94 +4 +4 1024.1 1023.6 +19.3
15 21.05 СЗ 3 20 км н/о +5.7 +5.0 95 +3 +3 1023.8 1023.3
18 21.05 СЗ 2 20 км н/о +4.3 +3.7 96 +2 +2 1023.3 1022.8
21 21.05 СЗ 3 20 км н/о +9.8 +7.8 87 +8 +8 1023.7 1023.2
00 22.05 С 4 20 км н/о +17.8 +8.5 54 +18 +18 1021.9 1021.4 +3.0
03 22.05 СЗ 4 20 км н/о +19.7 +8.4 48 +21 +21 комфорт 1020.1 1019.6
06 22.05 СЗ 4 20 км н/о +14.2 +6.7 61 +13 +13 1020.3 1019.8
09 22.05 СЗ 4 20 км н/о +12.3 +7.3 72 +11 +11 1021.0 1020.5

 

Местоположение метеостанции Гисборн (Новая Зеландия): широта -38.65 долгота 177.98 высота над уровнем моря 5 м.

В архиве по умолчанию представлена погода в Гисборне за последнюю неделю. Архивные данные за месяц целиком и за предыдущие месяцы, начиная с января 2011 года, Вы можете получить, выбрав интересующий диапазон дат из раскрывающегося списка и нажав кнопку "Ввод!".


*Определитесь, кто Вы:
робот инопланетянин человек

Внимание! Время в таблицах - всемирное. Для получения местного времени необходимо прибавить поправку, которая равна 12 ч.

Смотрите также архив погоды в соседних городах и на ближайших метеорологических станциях:

Погода в Хикс-Бей (Новая Зеландия) (126 км)
Погода в Нейпире (Новая Зеландия) (132 км)
Погода на Таупо (Новая Зеландия) (167 км)
Погода в Тауранге (Новая Зеландия) (191 км)
Погода на Уэйауру (Новая Зеландия) (219 км)
Погода в Пальмерстон-Норте (Новая Зеландия) (275 км)
Погода в Тахароа (Новая Зеландия) (290 км)
Погода в Каслпойнт (Новая Зеландия) (292 км)
Погода в Нью-Плимуте (Новая Зеландия) (332 км)
Погода в Окленде (Новая Зеландия) (334 км)

Пояснения к столбцам:

Ветер - указаны скорость ветра в м/с - средняя за 10 мин, порывы в срок и между сроками (в фигурных скобках) и направление, откуда дует ветер: С - северный, СВ - северо-восточный, В - восточный, ЮВ - юго-восточный, Ю - южный, ЮЗ - юго-западный, З - западный, СЗ - северо-западный.
Видимость - горизонтальная дальность видимости в метрах или километрах. При видимости от 1 до 10 км при отсутствии осадков обычно наблюдается дымка, при ухудшении видимости до 1 км и менее - туман. В сухую погоду видимость может ухудшаться дымом, пылью или мглою.
Явления - указаны атмосферные явления, наблюдавшиеся в срок или в последний час перед сроком; фигурными скобками обозначены явления, наблюдавшиеся между сроками (за 1-3 часа до срока); квадратными скобками обозначены град или гололедные отложения с указанием их диаметра в мм.
Облачность - указаны через наклонную черту общая и нижняя облачность в баллах и высота нижней границы облаков в метрах; квадратными скобками обозначены формы облаков: Ci - перистые, Cs - перисто-слоистые, Cc - перисто-кучевые, Ac - высококучевые, As - высокослоистые, Sc - слоисто-кучевые, Ns - слоисто-дождевые, Cu - кучевые, Cb - кучево-дождевые. Подробнее классификацию облаков см. в Атласе облаков (PDF).
T - Температура воздуха - температура, измеренная на высоте 2 м над землей.
Td - Температура точки росы - температура, при понижении до которой содержащийся в воздухе водяной пар достигнет насыщения.
f - Относительная влажность воздуха - влажноcть воздуха, измеренная на высоте 2 м над землей.
Te - Эффективная температура - температура, которую ощущает одетый по сезону человек в тени. Характеристика душности погоды. При расчете учитывается влияние влажности воздуха и скорости ветра на теплоощущения человека.
Tes - Эффективная температура на солнце - температура, которую ощущает человек, с поправкой на солнечный нагрев. Характеристика знойности погоды. Зависит от высоты солнца над горизонтом, облачности и скорости ветра. Ночью, в пасмурную погоду, а также при ветре 12 м/с и более поправка равна нулю.
P - Атмосферное давление - приведенное к уровню моря атмосферное давление.
Po - Атмосферное давление - измеренное на уровне метеостанции атмосферное давление.
Tmin - Минимальная температура - минимум температуры воздуха на высоте 2 м над землей.
Tmax - Максимальная температура - максимум температуры воздуха на высоте 2 м над землей.
R - Количество осадков - Количество выпавших осадков за период времени, мм. При наведении курсора мыши на число - период времени, за который выпало указанное количество осадков.
R24 - Количество осадков - Количество выпавших осадков за 24 часа, мм.
S - Снежный покров - Высота снежного покрова, см. При наведении курсора мыши на число - состояние снежного покрова и степень покрытия местности в баллах.